Location: Street
(51.1247°N, 2.7429°W)
Time: 23:11:40
(UTC+00:00)

Tiros 1 despin weight - All Passes

Search period start: 25 November 2020 00:00
Search period end: 05 December 2020 00:00
Orbit: 593 x 642 km, 48.2° (Epoch: 25 November)

Date Brightness Start Highest point End Pass type
(mag) Time Alt. Az. Time Alt. Az. Time Alt. Az.
25 Nov - 13:29:47 10° SSW 13:33:26 23° SSE 13:37:06 10° E daylight
25 Nov - 15:09:51 10° WSW 15:14:24 51° SSE 15:18:57 10° E daylight
25 Nov - 16:51:06 10° W 16:55:44 60° S 17:00:19 10° ESE visible
25 Nov - 18:32:41 10° W 18:36:53 34° SSW 18:41:03 10° SE visible
25 Nov - 20:16:24 10° WSW 20:17:27 11° SW 20:18:29 10° SSW visible
26 Nov - 12:08:07 10° SSE 12:09:00 10° SE 12:09:54 10° SE daylight
26 Nov - 13:45:22 10° SW 13:49:34 33° SSE 13:53:46 10° E daylight
26 Nov - 15:26:06 10° WSW 15:30:44 59° S 15:35:20 10° E daylight
26 Nov - 17:07:30 10° W 17:12:03 52° SSW 17:16:34 10° ESE visible
26 Nov - 18:49:20 10° W 18:53:01 23° SSW 18:56:40 10° SSE visible
27 Nov - 12:21:51 10° S 12:24:58 18° SE 12:28:06 10° E daylight
27 Nov - 14:01:20 10° SW 14:05:47 44° SSE 14:10:16 10° E daylight
27 Nov - 15:42:26 10° W 15:47:05 62° S 15:51:41 10° ESE daylight
27 Nov - 17:23:56 10° W 17:28:20 40° SSW 17:32:40 10° SE visible
27 Nov - 19:06:26 10° WSW 19:09:03 15° SW 19:11:38 10° S visible
28 Nov - 12:37:06 10° SSW 12:41:02 27° SSE 12:44:58 10° E daylight
28 Nov - 14:17:30 10° WSW 14:22:05 55° S 14:26:40 10° E daylight
28 Nov - 15:58:49 10° W 16:03:25 57° S 16:08:00 10° ESE daylight
28 Nov - 17:40:28 10° W 17:44:31 29° SSW 17:48:31 10° SSE visible
29 Nov - 11:14:20 10° SSE 11:16:32 13° SE 11:18:44 10° ESE daylight
29 Nov - 12:52:53 10° SW 12:57:12 38° SSE 13:01:33 10° E daylight
29 Nov - 14:33:47 10° WSW 14:38:25 61° S 14:43:03 10° E daylight
29 Nov - 16:15:13 10° W 16:19:44 47° SSW 16:24:12 10° ESE daylight
29 Nov - 17:57:15 10° W 18:00:37 20° SW 18:03:56 10° S visible
30 Nov - 11:29:01 10° SSW 11:32:31 21° SE 11:36:03 10° E daylight
30 Nov - 13:08:56 10° WSW 13:13:28 49° SSE 13:17:59 10° E daylight
30 Nov - 14:50:08 10° W 14:54:46 61° S 14:59:23 10° ESE daylight
30 Nov - 16:31:41 10° W 16:35:58 36° SSW 16:40:13 10° SE daylight
30 Nov - 18:14:47 10° WSW 18:16:35 12° SW 18:18:22 10° SSW visible
01 Dec - 11:44:32 10° SW 11:48:39 31° SSE 11:52:47 10° E daylight
01 Dec - 13:25:09 10° WSW 13:29:46 58° S 13:34:23 10° E daylight
01 Dec - 15:06:31 10° W 15:11:06 54° SSW 15:15:40 10° ESE daylight
01 Dec - 16:48:17 10° W 16:52:07 25° SSW 16:55:55 10° SSE visible
02 Dec - 10:21:12 10° S 10:24:04 16° SE 10:26:57 10° ESE daylight
02 Dec - 12:00:26 10° SW 12:04:50 42° SSE 12:09:17 10° E daylight
02 Dec - 13:41:28 10° W 13:46:07 62° S 13:50:44 10° E daylight
02 Dec - 15:22:56 10° W 15:27:23 43° SSW 15:31:48 10° SE daylight
02 Dec - 17:05:15 10° WSW 17:08:10 16° SW 17:11:03 10° S visible
03 Dec - 10:36:19 10° SSW 10:40:07 25° SSE 10:43:56 10° E daylight
03 Dec - 12:16:34 10° WSW 12:21:07 53° SSE 12:25:43 10° E daylight
03 Dec - 13:57:50 10° W 14:02:27 58° S 14:07:04 10° ESE daylight
03 Dec - 15:39:26 10° W 15:43:35 31° SSW 15:47:42 10° SE daylight
04 Dec - 09:13:55 10° SSE 09:15:39 12° SE 09:17:23 10° ESE daylight
04 Dec - 10:52:01 10° SW 10:56:15 35° SSE 11:00:32 10° E daylight
04 Dec - 12:32:50 10° WSW 12:37:27 60° S 12:42:05 10° E daylight
04 Dec - 14:14:14 10° W 14:18:46 49° SSW 14:23:17 10° ESE daylight
04 Dec - 15:56:09 10° W 15:59:42 21° SW 16:03:13 10° SSE daylight
